www.pogodaiklimat.ru

Погода и климат >> Архив погоды >> Малые Удаленные Острова >> Паго-Паго


ПОГОДА в Паго-Паго

  • Прогноз погоды в Паго-Паго
  • Монитор погоды в Паго-Паго

АРХИВ ПОГОДЫ в Паго-Паго

Время (UTC), дата Ветер
(напр.,м/с)
 
Видим.   Явления Облачность Т
(С)
Тd
(С)
f
(%)
Тe
(С)
Тes
(С)
Комфортность P
(гПа)
Po
(гПа)
Тmin
(С)
Tmax
(С)
R
(мм)
R24
(мм)
S
(см)
12 17.01 2 16 км 8/3 600 м
[Cu hum Ac As Ci fib]
+27.2 +25.0 88 +39 +39 очень
душно
1009.0 1008.6 +31.7
18 17.01 штиль 0 19 км 4/3 300 м
[Cu hum Ci fib]
+27.3 +24.9 87 +39 +39 очень
душно
1009.1 1008.8
00 18.01 В 5 19 км 5/5 300 м
[Cu Sc]
+31.7 +26.2 73 +48 +52 опасность
перегрева
1008.6 1008.3 +26.0
06 18.01 3 19 км {ливн. осадки} 4/3 300 м
[Cu hum Ci fib]
+28.9 +25.0 80 +42 +42 опасность
перегрева
1008.3 1008.0 2
12 18.01 3 16 км 8/5 300 м
[Cu Sc As op]
+27.9 +25.2 85 +40 +40 очень
душно
1009.8 1009.5 +32.1
18 18.01 штиль 0 19 км {ливн. осадки} 9/6 600 м
[Cu Sc Ac As]
+28.1 +25.3 85 +41 +41 опасность
перегрева
1009.1 1008.8 0.5
00 19.01 В 8 19 км 8/4 600 м
[Cu Sc Ac As Ci fib]
+31.9 +26.0 71 +47 +49 опасность
перегрева
1009.3 1009.0 +27.5 2
06 19.01 СВ 5 16 км {ливн. осадки} 8/5 300 м
[Cb calv Ci fib]
+29.0 +25.0 79 +42 +42 опасность
перегрева
1009.0 1008.6 9
12 19.01 В 4 16 км {ливн. осадки} 8/5 600 м
[Cu Sc Ac As]
+28.7 +25.1 81 +42 +42 опасность
перегрева
1009.5 1009.1 +32.5 0.5
18 19.01 В 5 19 км 8/4 300 м
[Cu Sc Ac As Ci]
+28.9 +25.3 81 +42 +42 опасность
перегрева
1009.0 1008.6
00 20.01 В 5 19 км 8/5 600 м
[Cu Sc Ci fib]
+32.1 +26.9 74 +50 +54 опасность
перегрева
1009.3 1009.0 +26.6 9
06 20.01 3 16 км {ливн. осадки} 9/5 300 м
[Cu hum As op Ci fib]
+29.4 +25.4 79 +43 +43 опасность
перегрева
1010.0 1009.7 0.8
12 20.01 В 6 16 км 8/3 300 м
[Cu hum Ci fib]
+29.0 +25.8 83 +43 +43 опасность
перегрева
1010.0 1009.7 +32.6
00 21.01 СВ 5 19 км в посл. час ливневой дождь 6/4 600 м
[Cu Sc Ac As Ci fib]
+31.9 +26.3 72 +48 +52 опасность
перегрева
1008.5 1008.1 +28.0 4
06 21.01 3 19 км 9/5 300 м
[Cb calv Ci fib]
+30.1 +24.9 74 +43 +43 опасность
перегрева
1007.6 1007.3
12 21.01 2 16 км 9/5 300 м
[Cu Sc As op]
+27.0 +24.9 88 +39 +39 очень
душно
1008.0 1007.6 +32.8
18 21.01 штиль 0 19 км 8/1 600 м
[Cu hum Ac As Cs]
+26.7 +25.2 91 +38 +39 очень
душно
1008.8 1008.5
00 22.01 3 19 км в посл. час ливневой дождь 8/5 300 м
[Cu Sc Ac As]
+29.0 +25.8 83 +43 +47 опасность
перегрева
1008.3 1008.0 +26.3 2
06 22.01 штиль 0 19 км 9/3 600 м
[Cu hum Ac As Ci fib]
+29.2 +25.3 80 +43 +43 опасность
перегрева
1006.6 1006.3
12 22.01 штиль 0 16 км 9/3 600 м
[Cu hum As trans Cs]
+27.1 +25.0 88 +39 +39 очень
душно
1007.5 1007.1 +31.1
18 22.01 штиль 0 19 км 6/4 300 м
[Cu Sc Ac As]
+27.8 +25.0 85 +40 +40 очень
душно
1007.1 1006.8
00 23.01 СЗ 6 19 км осадки на расстоянии 5/5 300 м
[Cu Sc Ac As]
+31.6 +25.6 71 +47 +50 опасность
перегрева
1006.6 1006.3 +26.6
06 23.01 2 17 км 9/6 300 м
[Cu Sc Ac As]
+27.2 +24.1 83 +38 +38 очень
душно
1006.6 1006.3
12 23.01 1 16 км 4/1 600 м
[Cu hum Ac As]
+27.2 +23.7 81 +37 +37 очень
душно
1007.6 1007.3 +31.7
18 23.01 2 19 км 3/3 600 м
[Cu hum]
+27.3 +24.1 83 +38 +38 очень
душно
1007.8 1007.5
00 24.01 нст 3 19 км слаб. ливневой дождь 4/4 600 м
[Cu med, cong]
+29.0 +25.6 82 +43 +50 опасность
перегрева
1006.9 1006.6 +26.4 5
06 24.01 нст 2 19 км {ливн. осадки} 9/8 300 м
[Cb calv Ac As]
+28.0 +25.5 86 +41 +41 опасность
перегрева
1007.3 1006.9 8

 

Местоположение метеостанции Паго-Паго (Малые Удаленные Острова): широта 14.33 долгота -170.70 высота над уровнем моря 3 м.

В архиве по умолчанию представлена погода в Паго-Паго за последнюю неделю. Архивные данные за месяц целиком и за предыдущие месяцы, начиная с января 2011 года, Вы можете получить, выбрав интересующий диапазон дат из раскрывающегося списка и нажав кнопку "Ввод!".


*Определитесь, кто Вы:
робот инопланетянин человек

Внимание! Время в таблицах - всемирное. Для получения местного времени необходимо прибавить поправку, которая равна 12 ч.

Смотрите также архив погоды в соседних городах и на ближайших метеорологических станциях:

Погода на Острове Кантон (Кирибати) (1905 км)
Погода на Острове Рождества (Кирибати) (2006 км)

Пояснения к столбцам:

Ветер - указаны скорость ветра в м/с - средняя за 10 мин, порывы в срок и между сроками (в фигурных скобках) и направление, откуда дует ветер: С - северный, СВ - северо-восточный, В - восточный, ЮВ - юго-восточный, Ю - южный, ЮЗ - юго-западный, З - западный, СЗ - северо-западный.
Видимость - горизонтальная дальность видимости в метрах или километрах. При видимости от 1 до 10 км при отсутствии осадков обычно наблюдается дымка, при ухудшении видимости до 1 км и менее - туман. В сухую погоду видимость может ухудшаться дымом, пылью или мглою.
Явления - указаны атмосферные явления, наблюдавшиеся в срок или в последний час перед сроком; фигурными скобками обозначены явления, наблюдавшиеся между сроками (за 1-3 часа до срока); квадратными скобками обозначены град или гололедные отложения с указанием их диаметра в мм.
Облачность - указаны через наклонную черту общая и нижняя облачность в баллах и высота нижней границы облаков в метрах; квадратными скобками обозначены формы облаков: Ci - перистые, Cs - перисто-слоистые, Cc - перисто-кучевые, Ac - высококучевые, As - высокослоистые, Sc - слоисто-кучевые, Ns - слоисто-дождевые, Cu - кучевые, Cb - кучево-дождевые. Подробнее классификацию облаков см. в Атласе облаков (PDF).
T - Температура воздуха - температура, измеренная на высоте 2 м над землей.
Td - Температура точки росы - температура, при понижении до которой содержащийся в воздухе водяной пар достигнет насыщения.
f - Относительная влажность воздуха - влажноcть воздуха, измеренная на высоте 2 м над землей.
Te - Эффективная температура - температура, которую ощущает одетый по сезону человек в тени. Характеристика душности погоды. При расчете учитывается влияние влажности воздуха и скорости ветра на теплоощущения человека.
Tes - Эффективная температура на солнце - температура, которую ощущает человек, с поправкой на солнечный нагрев. Характеристика знойности погоды. Зависит от высоты солнца над горизонтом, облачности и скорости ветра. Ночью, в пасмурную погоду, а также при ветре 12 м/с и более поправка равна нулю.
P - Атмосферное давление - приведенное к уровню моря атмосферное давление.
Po - Атмосферное давление - измеренное на уровне метеостанции атмосферное давление.
Tmin - Минимальная температура - минимум температуры воздуха на высоте 2 м над землей.
Tmax - Максимальная температура - максимум температуры воздуха на высоте 2 м над землей.
R - Количество осадков - Количество выпавших осадков за период времени, мм. При наведении курсора мыши на число - период времени, за который выпало указанное количество осадков.
R24 - Количество осадков - Количество выпавших осадков за 24 часа, мм.
S - Снежный покров - Высота снежного покрова, см. При наведении курсора мыши на число - состояние снежного покрова и степень покрытия местности в баллах.